STARLINK-4010 (52862 NORAD) Tracking and Keplerian Element Data

This shows tracking and keplerian element data for the satellite.

Feedback or suggestion? Click here.




ElementValue
Catalog52862
NameSTARLINK-4010
Epoch Orbit1628
Epoch Day270.25001157
Epoch Year2022
RAAN277.9499
Inclination53.2159
Eccentricity0.0001662
Argument of Perigee59.6799
Mean Anonmoly293.6669
Mean Motion15.08845053
Decay Rate-0.00019363
L11 52862U 22062AJ 22270.25001157 -.00019363 00000+0 -12016-2 0 9994
L22 52862 53.2159 277.9499 0001662 59.6799 293.6669 15.08845053 16284

Live tracking and technical data element details for STARLINK-4010 (NORAD 52862). STARLINK-4010 can be tracked NOW for your location showing map with azimuth and elevation plus other details from your city location.

Track the satellite on the map from your city or location and see movement details for azimuth, elevation, latitude, longitude, range, height, and movement on the map or in text.







IsCatalogInMostPopularTable: catalog: 52862, numindb: 7
Update: records affected: 1



GetName: 52862 STARLINK-4010

Hit Count: updated at: Thu, 06 Oct 2022 05:16:15 GMT